Dewpoint
3 0 -0 -1 -1 -2 -2 -3 -3 -4 -3 -1 1 0 -2 -7 -10 -15 -17 -14 -0 9 10 12 11 12 13 12 8 10 12 12 11 8 7 6 5 5 4 5 8 8 7
-0 -1 -1 -1 -1 -2 -3 -3 -3 -4 -5 -6 -7 -4 -1 1 1 0 -5 -6 -10 -15 1 7 10 11 12 13 12 11 12 10 12 11 9 8 8 5 5 5 6 8 8
-1 -1 -1 -1 -2 -3 -3 -3 -3 -4 -4 -6 -12 -16 -15 -11 -6 -1 0 -0 -0 -2 -9 -12 4 7 10 11 12 12 12 10 9 11 11 10 10 8 6 6 6 6 8
-0 -1 -1 -2 -3 -3 -3 -3 -3 -4 -5 -5 -5 -10 -14 -9 -2 -0 1 0 0 0 0 -1 -8 -7 4 7 8 10 12 12 11 12 11 10 10 9 8 8 7 6 6
-1 -2 -2 -2 -2 -2 -2 -3 -4 -5 -5 -6 -7 -9 -10 -9 -5 1 -0 1 1 1 0 0 0 -2 -8 -3 4 6 7 9 12 12 11 10 10 10 9 9 9 7 6
-1 -1 -0 -1 -1 -3 -2 -3 -4 -6 -7 -9 -11 -11 -11 -11 -7 -1 -7 -7 -2 -2 1 1 1 2 2 2 -4 -0 4 5 7 8 11 11 9 9 9 9 9 9 8
-0 -0 -1 -1 -2 -4 -5 -6 -8 -7 -6 -10 -5 -11 -11 -14 -6 -12 -14 -13 -15 -12 -10 -3 -1 1 2 4 6 4 1 1 3 5 6 10 10 10 9 9 9 10 9
-0 -1 -3 -2 -2 -5 -8 -10 -11 -8 -1 -3 -0 -1 -3 -3 -5 -6 -7 -12 -13 -16 -15 -16 -13 -7 -1 1 3 6 6 7 6 4 4 7 7 7 8 7 7 10 9
-1 -1 -2 -2 -8 -9 -10 -13 -16 -16 -8 -2 -5 -1 -2 -3 -1 -1 -1 -0 -1 -1 -7 -13 -13 -14 -13 -8 -2 2 3 5 7 7 8 7 7 8 9 8 7 7 7
-1 -1 -1 -5 -10 -11 -14 -16 -14 -14 -13 -5 -5 -1 -1 -1 -1 -1 -2 -2 -2 -2 -1 -2 -5 -12 -11 -12 -12 -9 -2 1 2 5 7 8 8 10 10 10 10 9 8
-2 -1 -3 -16 -22 -28 -33 -32 -31 -31 -27 -20 -9 -4 -5 -3 -2 -2 -2 -3 -3 -2 -2 -2 -1 -1 -1 -4 -7 -9 -12 -7 -0 1 3 5 5 6 5 4 5 6 8
-1 -8 -32 -37 -37 -35 -33 -32 -33 -34 -34 -34 -32 -25 -8 -5 -5 -6 -6 -6 -6 -6 -5 -6 -4 -3 -2 -1 -1 -3 -5 -5 -6 -2 -0 2 4 5 4 3 3 3 4
-19 -36 -36 -35 -32 -31 -31 -32 -33 -34 -35 -35 -35 -32 -29 -19 -11 -8 -10 -11 -10 -10 -10 -8 -8 -7 -6 -4 -2 -5 -5 -3 -3 -7 -3 -0 1 3 4 3 2 2 2
-36 -36 -34 -32 -32 -33 -33 -33 -34 -34 -34 -32 -31 -30 -30 -28 -27 -22 -12 -11 -10 -12 -13 -12 -11 -9 -9 -5 -10 -9 -2 -2 -2 0 1 1 0 2 3 3 3 1 -2
-35 -33 -32 -32 -34 -34 -33 -33 -34 -32 -29 -29 -28 -27 -26 -25 -25 -24 -22 -10 -9 -9 -11 -12 -12 -11 -11 -9 -10 -16 -8 -2 -1 -0 1 1 1 2 3 3 3 2 1
-33 -33 -33 -34 -34 -32 -32 -31 -29 -28 -26 -25 -24 -23 -23 -23 -23 -24 -21 -15 -11 -10 -9 -10 -10 -9 -9 -11 -8 -11 -10 -13 -3 -1 -1 -1 -1 -0 0 2 4 4 2
-34 -34 -34 -35 -32 -31 -30 -27 -25 -24 -23 -23 -22 -22 -23 -24 -25 -25 -19 -15 -12 -11 -10 -12 -12 -11 -10 -9 -9 -7 -7 -7 -6 -9 -6 -2 -1 -0 -1 -1 1 2 3
-34 -35 -35 -33 -30 -29 -26 -24 -23 -22 -22 -22 -22 -22 -24 -26 -26 -16 -13 -12 -11 -11 -11 -12 -12 -12 -12 -12 -12 -7 -6 -7 -6 -6 -7 -7 -2 -1 -1 -2 -2 0 2
-35 -35 -35 -31 -28 -25 -23 -22 -21 -21 -21 -21 -21 -22 -25 -24 -18 -16 -12 -11 -11 -11 -11 -11 -12 -11 -12 -12 -12 -11 -10 -10 -8 -8 -7 -4 -3 -1 -1 -2 -3 -3 -0
-36 -35 -32 -28 -25 -22 -21 -21 -21 -21 -20 -19 -20 -23 -24 -22 -17 -12 -12 -11 -11 -11 -11 -11 -12 -12 -13 -13 -13 -12 -11 -10 -10 -9 -9 -4 -4 -2 -1 -2 -4 -6 -5
-36 -34 -30 -26 -23 -21 -20 -20 -20 -18 -17 -20 -20 -22 -21 -24 -18 -14 -12 -12 -12 -12 -12 -12 -12 -12 -13 -12 -12 -13 -10 -10 -10 -10 -11 -6 -4 -4 -2 -2 -3 -5 -7
-35 -32 -28 -25 -22 -20 -19 -19 -19 -18 -17 -16 -16 -17 -18 -21 -14 -12 -12 -12 -12 -12 -12 -12 -12 -12 -12 -11 -12 -12 -12 -12 -10 -10 -9 -8 -4 -4 -3 -2 -3 -5 -6
-35 -32 -27 -23 -21 -19 -19 -19 -19 -18 -16 -15 -15 -14 -14 -15 -13 -11 -12 -11 -11 -11 -11 -11 -11 -11 -11 -11 -11 -12 -12 -12 -11 -10 -9 -8 -9 -4 -4 -3 -3 -6 -7
-35 -32 -26 -22 -20 -18 -18 -18 -18 -14 -15 -15 -15 -14 -13 -15 -12 -12 -11 -11 -11 -10 -10 -9 -9 -9 -9 -10 -12 -11 -12 -12 -12 -11 -10 -9 -9 -6 -4 -4 -4 -4 -7
-34 -30 -25 -22 -20 -18 -18 -18 -16 -12 -13 -13 -13 -14 -15 -17 -14 -12 -11 -10 -11 -11 -10 -8 -9 -10 -11 -9 -11 -12 -11 -12 -11 -11 -10 -8 -11 -8 -5 -5 -4 -5 -6
-33 -31 -26 -21 -19 -19 -18 -17 -14 -13 -12 -12 -12 -14 -22 -24 -15 -12 -11 -10 -11 -10 -9 -9 -9 -10 -11 -11 -11 -12 -11 -11 -11 -11 -11 -10 -8 -6 -6 -6 -6 -6 -6
Wind_Speed
3 6 7 9 12 13 14 16 17 18 18 18 19 19 17 17 16 14 15 16 16 18 20 22 30 24 27 30 29 33 28 24 21 21 21 21 21 21 23 24 24 24 23
9 9 10 12 14 16 18 19 20 21 21 20 19 18 18 17 18 17 16 14 14 15 20 18 21 22 20 22 27 30 32 25 24 24 21 23 24 24 25 26 26 26 26
11 11 13 15 16 18 18 19 20 20 19 18 18 17 17 16 15 15 15 16 15 14 15 20 21 20 19 21 22 26 32 36 30 29 28 28 28 28 27 28 29 29 29
12 13 15 17 18 19 21 21 22 21 20 20 19 19 17 14 11 9 10 12 14 14 15 17 18 22 22 20 21 25 24 41 37 32 29 28 31 32 31 31 31 32 32
14 15 16 17 18 19 19 19 19 20 22 20 19 18 14 11 10 9 11 10 10 12 14 15 17 18 20 23 23 24 25 26 22 24 31 30 35 39 37 36 34 34 35
15 17 19 20 22 23 23 22 20 19 20 21 21 18 14 13 8 10 15 14 14 14 15 16 18 18 18 21 23 25 26 27 28 28 28 31 32 40 49 42 38 36 38
17 19 22 23 24 25 24 24 24 24 24 28 24 25 15 14 6 18 16 17 18 18 18 18 18 19 18 16 19 22 24 29 30 28 29 29 37 38 50 53 43 39 40
18 20 22 24 25 25 24 26 27 26 20 24 21 17 15 15 12 25 12 24 19 26 22 21 20 20 21 21 18 17 19 23 25 28 31 29 32 34 55 61 64 47 45
18 20 23 24 25 24 25 26 26 26 24 19 21 15 12 11 30 8 19 16 26 24 26 25 24 23 23 23 23 21 19 21 21 23 25 31 28 28 45 44 42 44 53
19 22 23 25 23 23 24 25 24 25 25 22 20 15 13 16 18 21 15 26 22 25 25 26 26 27 26 25 25 25 23 22 21 22 24 25 25 25 33 29 45 44 39
20 21 23 21 19 20 21 22 23 24 24 22 19 19 19 18 15 22 31 32 28 25 24 21 25 27 26 26 26 26 25 24 24 22 27 26 25 27 26 18 19 22 26
19 20 17 16 17 18 20 21 22 22 23 22 21 20 17 16 20 23 27 29 30 28 28 31 25 24 24 25 26 28 25 27 27 25 24 28 30 28 29 27 26 26 25
18 15 15 17 18 19 20 21 21 22 22 22 22 22 22 20 19 19 24 30 32 31 28 24 27 29 27 26 25 32 31 25 26 28 27 29 27 33 29 28 28 30 28
14 16 17 18 19 20 22 22 21 20 20 19 19 21 22 23 24 25 23 26 34 32 32 30 28 27 31 27 33 34 33 31 23 24 24 22 29 31 30 28 30 28 28
14 15 17 18 20 22 22 21 19 18 18 19 20 22 24 25 27 29 29 24 25 35 38 33 31 31 34 32 34 36 36 33 30 25 31 25 24 21 35 38 35 33 30
15 17 18 20 22 22 21 19 18 18 19 21 22 24 26 27 29 29 28 28 26 29 40 33 32 31 33 40 36 36 35 40 39 34 37 38 33 30 28 24 35 33 32
15 17 19 21 21 20 20 19 19 20 21 23 25 26 28 28 28 27 26 26 25 25 35 47 37 33 33 36 41 33 32 30 33 46 39 39 37 33 32 30 29 32 33
16 18 20 21 20 20 19 19 20 21 23 25 26 27 28 28 27 25 23 24 24 25 30 41 41 38 39 40 40 36 32 29 28 29 35 39 40 32 31 32 32 33 33
17 19 20 21 20 20 19 20 20 22 23 25 26 27 28 26 26 23 23 25 26 27 30 35 44 40 39 37 37 37 39 37 33 30 30 35 37 36 31 30 31 34 35
18 20 20 20 20 20 20 20 21 23 24 25 26 27 26 24 23 24 25 27 27 31 34 36 44 45 43 42 39 40 38 31 32 29 29 27 38 34 32 31 30 29 36
18 20 21 21 20 20 21 22 22 22 24 26 26 25 24 23 22 26 27 30 31 33 36 41 46 44 48 41 37 36 30 33 32 31 33 30 29 37 33 32 30 28 28
19 20 21 21 20 21 22 24 24 23 24 24 24 24 25 23 24 29 31 29 31 35 44 45 50 50 54 46 40 37 36 35 29 22 20 31 21 31 29 28 28 26 26
19 20 21 21 21 21 23 25 25 24 23 24 24 24 24 22 25 29 33 36 37 37 40 46 53 60 59 55 39 36 34 33 34 27 24 26 23 25 25 25 25 21 22
19 20 21 21 21 22 24 26 26 21 22 23 24 24 24 24 24 30 34 37 39 39 38 42 47 54 57 56 44 34 31 31 31 31 25 31 26 22 20 25 22 22 22
19 20 21 21 21 22 24 26 24 21 21 24 25 24 25 25 24 28 31 32 37 40 40 35 37 34 30 31 40 26 25 25 26 28 22 23 28 26 25 23 19 21 21
18 19 21 21 21 22 24 26 22 20 21 23 25 25 26 25 24 26 29 28 33 38 38 36 36 33 28 14 23 29 30 30 29 29 22 23 22 19 15 17 17 21 22
Wind_Direction
30 38 36 30 26 19 8 1 355 351 347 341 335 332 332 332 335 327 310 298 281 270 270 260 249 259 257 253 243 253 243 237 236 232 229 227 226 228 232 228 224 223 219
64 54 40 28 19 10 3 355 348 344 342 341 342 338 327 317 311 310 312 314 309 289 276 274 272 269 256 258 245 242 242 243 242 238 236 234 232 228 228 234 230 227 225
50 36 25 15 10 4 356 349 344 343 340 341 343 343 342 341 328 312 304 302 302 300 292 277 270 273 270 263 256 248 246 250 250 247 250 255 243 236 230 229 233 231 228
38 22 16 12 7 358 353 348 348 350 350 347 349 354 351 354 360 349 338 329 322 308 299 294 285 272 269 266 266 266 264 250 237 247 252 255 238 239 236 231 232 233 232
26 18 14 8 3 0 356 355 352 349 346 349 353 357 349 345 345 353 347 343 340 330 316 309 307 299 282 271 264 262 269 273 271 257 248 245 243 243 238 239 231 233 233
17 12 12 10 10 8 7 7 5 1 357 352 347 349 351 341 318 328 338 333 328 328 324 320 311 305 302 292 278 265 262 266 264 264 260 261 252 246 245 242 234 229 234
17 13 10 7 4 3 2 358 357 356 357 351 351 344 343 344 309 335 325 332 324 322 320 312 313 312 307 302 293 286 275 264 262 261 259 257 257 262 245 245 238 236 234
12 7 5 1 357 357 357 356 353 353 355 356 357 345 337 340 316 334 329 326 320 323 319 317 312 306 302 300 295 287 287 283 272 260 257 259 259 251 231 237 242 233 238
4 360 356 353 350 350 351 349 350 351 352 353 356 4 341 324 327 320 329 331 330 330 321 312 310 308 305 298 293 285 279 280 277 264 258 257 259 251 234 228 226 234 241
350 346 345 344 344 344 344 347 345 343 342 343 344 339 330 316 319 317 307 322 321 323 322 323 317 307 304 302 300 296 283 277 276 271 257 247 250 244 241 253 226 228 227
335 335 334 336 339 342 343 341 340 341 338 334 335 333 329 327 319 311 312 317 317 320 320 320 317 317 313 306 304 301 300 286 269 271 266 249 243 245 253 256 258 260 282
329 329 333 344 347 345 344 342 339 336 335 333 332 333 337 335 321 320 313 313 311 312 307 310 310 311 310 310 308 299 297 294 285 270 265 266 251 248 253 257 255 256 248
331 338 346 349 345 344 340 338 337 334 332 331 330 330 329 327 325 321 317 314 312 312 310 307 306 304 305 303 299 294 291 285 297 294 277 261 262 257 259 261 265 262 256
340 343 346 344 340 338 338 337 336 335 334 335 335 334 332 329 326 324 320 318 314 311 309 308 305 303 304 295 295 286 282 281 276 285 281 268 257 251 249 253 258 260 257
338 340 340 337 336 337 337 337 337 339 339 336 333 328 325 323 320 318 316 314 310 309 305 306 304 303 300 296 296 294 274 271 263 256 256 254 267 250 242 246 246 245 248
335 334 334 335 337 337 337 339 338 337 335 331 328 327 328 327 323 320 316 310 306 304 300 302 302 300 299 295 294 293 288 268 263 256 257 263 267 271 261 247 230 229 235
330 330 333 335 335 335 335 337 336 335 334 331 329 331 330 327 323 320 316 313 309 306 299 300 301 302 298 294 293 290 287 285 276 265 262 259 262 267 267 257 241 228 225
328 330 333 332 333 333 335 335 335 334 332 329 330 332 330 328 327 321 317 315 311 307 301 300 304 300 295 293 284 287 282 277 277 275 271 258 260 258 262 263 250 241 229
329 331 332 331 333 334 334 334 333 333 330 329 331 332 330 328 324 321 320 314 311 307 303 298 298 299 296 292 289 285 279 277 274 277 272 260 255 248 255 255 255 251 242
330 329 329 331 333 333 332 333 333 331 329 330 332 330 328 326 320 319 315 312 309 304 302 297 295 296 294 292 288 283 281 279 277 272 267 261 257 247 246 253 253 249 243
328 327 329 331 332 332 330 331 332 330 328 329 331 329 326 326 329 326 316 312 306 304 301 298 294 292 289 285 281 285 279 282 278 274 276 260 256 250 243 243 249 251 249
326 327 328 329 330 329 328 329 332 331 328 328 329 327 326 325 328 327 323 311 305 301 301 294 288 282 282 282 277 275 277 277 280 276 277 265 267 252 254 240 239 249 249
325 324 325 327 328 328 328 328 332 332 328 329 330 325 324 322 327 325 329 323 316 309 306 298 289 286 279 276 272 271 269 268 267 273 280 277 268 250 255 247 238 238 242
323 322 324 326 327 328 327 328 332 331 328 329 329 327 322 321 324 328 329 327 328 323 323 325 311 304 297 282 263 264 267 269 268 265 266 273 265 270 260 252 249 245 245
321 322 325 326 327 327 326 329 334 329 326 329 331 328 325 322 326 331 330 332 338 336 333 332 333 326 308 289 267 260 260 263 265 265 262 263 262 268 247 253 249 252 247
320 321 323 324 325 325 328 330 333 328 323 327 330 328 331 326 324 335 330 333 343 346 342 342 341 349 347 315 277 260 257 260 264 268 263 254 254 270 273 271 252 258 256
Height
1578 1579 1580 1581 1577 1576 1574 1573 1572 1571 1569 1567 1564 1562 1560 1559 1556 1555 1555 1555 1557 1557 1554 1554 1553 1553 1552 1552 1552 1552 1556 1557 1558 1559 1561 1563 1565 1568 1572 1574 1577 1580 1582
1580 1581 1582 1580 1577 1577 1575 1573 1571 1569 1566 1565 1563 1560 1559 1557 1556 1554 1553 1553 1552 1552 1551 1548 1547 1546 1547 1546 1547 1548 1547 1552 1552 1553 1556 1558 1560 1562 1565 1569 1573 1576 1579
1584 1584 1582 1580 1579 1577 1576 1573 1571 1568 1566 1564 1561 1558 1557 1554 1552 1551 1550 1550 1549 1548 1546 1544 1543 1542 1542 1541 1541 1542 1543 1543 1544 1545 1548 1551 1554 1556 1559 1562 1567 1571 1575
1586 1584 1582 1581 1579 1577 1574 1571 1569 1566 1564 1562 1559 1557 1555 1553 1551 1549 1548 1546 1545 1544 1543 1541 1540 1538 1537 1537 1537 1536 1533 1523 1528 1539 1540 1544 1548 1551 1553 1555 1560 1564 1568
1587 1585 1584 1583 1580 1577 1575 1572 1568 1565 1563 1562 1560 1557 1554 1552 1550 1549 1547 1545 1544 1542 1540 1538 1536 1533 1531 1530 1530 1529 1529 1530 1531 1531 1535 1538 1542 1544 1545 1549 1551 1556 1560
1587 1585 1584 1581 1578 1575 1573 1570 1568 1565 1564 1562 1559 1557 1553 1551 1548 1546 1545 1543 1542 1540 1537 1534 1531 1529 1528 1527 1526 1524 1523 1522 1522 1525 1528 1530 1533 1537 1540 1543 1543 1546 1551
1587 1585 1583 1580 1578 1575 1572 1570 1567 1565 1561 1558 1556 1553 1550 1549 1546 1544 1543 1541 1539 1537 1534 1531 1529 1526 1525 1524 1522 1521 1519 1518 1517 1520 1523 1524 1526 1526 1529 1536 1535 1537 1542
1587 1584 1582 1579 1577 1575 1572 1569 1566 1564 1562 1558 1556 1552 1547 1545 1543 1540 1538 1537 1535 1533 1530 1528 1525 1523 1521 1519 1518 1517 1516 1515 1513 1514 1516 1518 1518 1517 1515 1518 1524 1528 1532
1587 1585 1582 1579 1576 1574 1571 1568 1566 1563 1561 1559 1557 1557 1552 1547 1541 1538 1537 1535 1533 1530 1527 1524 1522 1521 1519 1516 1514 1513 1512 1511 1509 1509 1509 1509 1511 1509 1513 1512 1515 1516 1519
1586 1584 1580 1577 1575 1573 1570 1568 1565 1563 1560 1557 1555 1555 1554 1551 1545 1534 1534 1532 1531 1529 1525 1521 1518 1515 1514 1512 1510 1508 1507 1507 1505 1504 1504 1502 1502 1504 1504 1497 1505 1509 1511
1585 1582 1580 1577 1574 1572 1569 1567 1564 1561 1558 1556 1553 1550 1548 1546 1545 1540 1528 1526 1526 1524 1522 1519 1516 1512 1509 1507 1505 1503 1501 1500 1499 1498 1497 1496 1494 1494 1497 1499 1493 1499 1499
1584 1581 1578 1575 1573 1570 1567 1565 1562 1559 1556 1553 1550 1548 1545 1543 1540 1536 1530 1526 1522 1519 1517 1513 1512 1509 1506 1503 1501 1498 1496 1493 1492 1491 1489 1489 1489 1486 1486 1492 1497 1499 1498
1581 1578 1575 1573 1570 1568 1565 1563 1560 1557 1553 1550 1548 1545 1543 1540 1537 1533 1528 1521 1515 1513 1511 1510 1506 1502 1500 1498 1495 1491 1490 1488 1486 1484 1483 1482 1482 1483 1481 1481 1482 1484 1486
1578 1575 1572 1570 1568 1565 1562 1559 1556 1553 1550 1547 1545 1542 1539 1536 1533 1529 1525 1519 1509 1506 1503 1501 1500 1497 1493 1491 1486 1485 1483 1482 1481 1481 1479 1477 1477 1477 1477 1477 1478 1478 1480
1575 1573 1570 1568 1565 1562 1559 1556 1553 1550 1547 1544 1542 1539 1536 1533 1529 1525 1521 1517 1512 1499 1492 1493 1491 1490 1485 1482 1478 1474 1474 1472 1472 1470 1470 1469 1468 1468 1469 1470 1472 1475 1475
1572 1570 1568 1565 1562 1559 1556 1553 1550 1546 1544 1540 1537 1534 1531 1527 1523 1520 1515 1511 1507 1500 1485 1488 1485 1482 1478 1472 1468 1465 1462 1461 1460 1460 1460 1458 1459 1460 1460 1460 1463 1466 1468
1569 1568 1565 1561 1558 1556 1553 1550 1546 1543 1539 1536 1532 1528 1525 1521 1517 1512 1508 1504 1499 1496 1486 1472 1476 1473 1469 1465 1458 1457 1453 1451 1448 1447 1449 1449 1449 1450 1452 1453 1455 1457 1460
1567 1564 1562 1558 1555 1552 1549 1546 1543 1539 1535 1531 1527 1523 1519 1514 1510 1506 1502 1497 1493 1489 1484 1471 1465 1464 1459 1454 1449 1446 1444 1442 1440 1438 1437 1438 1439 1441 1442 1444 1446 1449 1451
1563 1560 1557 1555 1551 1548 1545 1542 1539 1535 1531 1526 1522 1517 1512 1508 1504 1500 1496 1492 1488 1482 1477 1470 1456 1454 1448 1444 1439 1435 1433 1431 1430 1428 1426 1425 1427 1429 1432 1435 1437 1438 1441
1560 1557 1553 1550 1547 1544 1541 1538 1534 1530 1525 1520 1516 1511 1507 1503 1498 1495 1491 1486 1481 1475 1468 1461 1450 1442 1437 1433 1431 1426 1420 1422 1419 1419 1415 1415 1417 1418 1422 1425 1427 1429 1431
1556 1554 1550 1546 1543 1540 1537 1533 1530 1525 1520 1515 1511 1506 1502 1498 1494 1489 1484 1478 1472 1466 1458 1451 1441 1434 1425 1423 1421 1418 1414 1411 1409 1409 1405 1404 1407 1407 1410 1413 1416 1419 1421
1552 1549 1546 1543 1539 1536 1532 1528 1524 1520 1515 1510 1505 1501 1496 1491 1487 1482 1476 1471 1466 1459 1448 1443 1433 1423 1411 1411 1410 1408 1407 1404 1400 1402 1400 1396 1396 1397 1400 1404 1407 1410 1413
1548 1546 1543 1539 1535 1532 1528 1524 1520 1515 1510 1504 1500 1495 1490 1486 1481 1475 1467 1460 1454 1450 1443 1433 1421 1406 1398 1394 1398 1396 1397 1396 1394 1394 1394 1389 1389 1390 1393 1394 1398 1402 1405
1545 1541 1538 1535 1531 1527 1523 1519 1515 1511 1505 1500 1494 1490 1485 1480 1476 1469 1461 1452 1443 1437 1429 1420 1410 1396 1384 1379 1384 1387 1387 1387 1387 1386 1388 1383 1383 1382 1386 1387 1391 1394 1397
1540 1537 1533 1530 1527 1523 1519 1514 1510 1507 1501 1496 1490 1485 1480 1474 1469 1463 1456 1447 1438 1427 1419 1411 1401 1387 1375 1369 1373 1379 1379 1379 1377 1376 1380 1378 1376 1378 1380 1382 1385 1386 1389
1536 1533 1529 1526 1523 1519 1515 1510 1506 1503 1497 1491 1486 1480 1475 1469 1463 1458 1452 1444 1433 1425 1414 1402 1393 1381 1372 1366 1368 1370 1372 1372 1372 1369 1372 1374 1373 1374 1374 1373 1376 1379 1380